Location: Aalen
(48.8330°N, 10.1000°E)
Time: 17:48:56
(UTC+02:00)

Transit 4A - Pass Details

Date: 02 August 2021
Orbit: 871 x 974 km, 66.8° (Epoch: 16 September)

Event Time Altitude Azimuth Distance (km) Brightness Sun altitude
Rises 04:15:15 0° 283° (WNW) 3,472 10.6 -13.5°
Reaches altitude 10° 04:18:49 10° 305° (NW) 2,528 10.1 -13.2°
Maximum altitude 04:22:19 16° 342° (NNW) 2,129 10.2 -12.8°
Drops below altitude 10° 04:25:49 10° 20° (NNE) 2,531 11.3 -12.4°
Sets 04:29:24 0° 41° (NE) 3,479 13.1 -12.0°
